Overview Statistics Trail Chart Weather Telemetry Raw packets
 

This is the latest recevied weather packets stored in our database for station/object N0MR. If no packets are shown the sender has not sent any weather packets the latest 10 day(s).

<< 35 36 37 38 39 40 41 >>
Time Temp. Humidity Pressure Rain* Wind** Luminosity Snow
1787947557 23.33° C 59% 1017.9 hPa 0 mm - - -
1787946956 22.78° C 62% 1018 hPa 0 mm - - -
1787946356 22.78° C 62% 1018 hPa 0 mm - - -
1787945756 22.22° C 59% 1018.4 hPa 0 mm - - -
1787945157 22.22° C 59% 1018.4 hPa 0 mm - - -
1787944556 22.78° C 57% 1018.5 hPa 0 mm - - -
1787943957 22.78° C 57% 1018.5 hPa 0 mm - - -
1787943356 22.78° C 50% 1018.7 hPa 0 mm - - -
1787942756 22.78° C 50% 1018.7 hPa 0 mm - - -
1787942157 22.22° C 45% 1019.1 hPa 0 mm - - -
1787941557 22.22° C 45% 1019.1 hPa 0 mm - - -
1787940957 22.22° C 46% 1019.3 hPa 0 mm - - -
1787940356 21.67° C 46% 1019.5 hPa 0 mm - - -
1787939756 21.67° C 46% 1019.5 hPa 0 mm - - -
1787939157 21.67° C 46% 1019.7 hPa 0 mm - - -
1787938557 21.67° C 46% 1019.7 hPa 0 mm - - -
1787937957 21.11° C 49% 1019.9 hPa 0 mm - - -
1787937357 21.11° C 49% 1019.9 hPa 0 mm - - -
1787936756 21.11° C 47% 1019.8 hPa 0 mm - - -
1787936156 21.11° C 47% 1019.8 hPa 0 mm - - -
1787935556 21.11° C 49% 1019.8 hPa 0 mm - - -
1787934357 20.56° C 51% 1019.9 hPa 0 mm - - -
1787933758 20.56° C 51% 1019.9 hPa 0 mm - - -
1787933158 20° C 51% 1020 hPa 0 mm - - -
1787932558 20° C 51% 1020 hPa 0 mm - - -

* Rain latest hour (hover to see other rain measurements)
** Current wind speed in m/s (hover to see current wind gust speed)